sat.trackr.live / text

‹ back to catalog

STARLINK-4499

NORAD 53402 · 2022-097Q

PAYLOAD ACTIVE UNKNOWN

§ Identity

Operator
Country
US
Launch date
2022-08-10
Launch site
AFETR
Launch vehicle
Mass (kg)
RCS (m²)

Purposes: comms

External: N2YO · Heavens-Above · Gunter

§ Orbital elements

Epoch: 2026-05-24T23:21:16.672032Z

Period
95.44 min
Inclination
53.2127°
Eccentricity
0.0001145
Mean motion
15.08843276 rev/d
Perigee alt
538.9 km
Apogee alt
540.5 km
Semi-major
6,917.9 km
B*
-2.2140e-5
RAAN
141.6715°
Arg perigee
69.3965°
Mean anomaly
290.7150°
Rev number
21,003

§ Raw data

STARLINK-44991 53402U 22097Q   26144.97310963 -.00000640  00000+0 -22140-4 0  99932 53402  53.2127 141.6715 0001145  69.3965 290.7150 15.08843276210034

JSON: /api/v1/satellites/53402 · /tle

For live sub-satellite position, see the globe view (requires WebGL).

§ Visibility from observer

Set your observer location to see the next 7 days of passes ≥ 10°. The values pass through the URL so the page stays shareable.

No JS? Fill the form by hand. The geolocation button needs JavaScript.